[[{"header":{"parameterUnit":"m.s-1","parameterCategory":1,"la1":30.2991,"la2":30.254,"lo1":-89.0895,"lo2":-89.0444,"dy":0.0017,"dx":0.0017,"nx":28,"ny":28,"refTime":"2024-12-23T03:00:00:Z","depth":0,"parameterNumber":2,"parameterNumberName":"U-component_of_WINDS"},"data":[0,0,0,0,0,0,0,0,0,0,0,0,0,0,0,0,0,0,0,0,0,0,0,0,0,0,0,0,0,0,0,0,0,0,0,0,0,0,0,0,0,0,0,0,0,0,0,0,0,0,0,0,0,0,0,0,0,0,-4.2407,-4.2408,0,-4.249,-4.2491,-4.2492,-4.2365,-4.2361,-4.2356,-4.2352,-4.2441,-4.2448,-4.2454,0,0,0,0,0,0,0,0,0,0,0,0,0,-4.2141,-4.2146,-4.2407,-4.2408,-4.2409,-4.249,-4.2491,-4.2493,-4.2366,-4.2361,-4.2355,-4.235,-4.2439,-4.2447,-4.2455,0,0,0,0,0,0,0,0,0,0,0,0,0,-4.2244,-4.2148,-4.2407,-4.2356,-4.2352,-4.249,-4.2491,-4.2493,-4.2367,-4.236,-4.2354,-4.2348,-4.2437,-4.2446,-4.2456,-4.2649,0,0,-4.2485,-4.249,0,0,0,0,0,0,0,0,-4.2238,-4.2254,-4.2362,-4.2359,-4.2355,-4.241,-4.243,-4.2545,-4.2369,-4.2362,-4.2352,-4.2344,-4.2437,-4.2446,-4.2476,-4.2653,-4.2657,-4.2486,-4.2492,-4.2496,-4.2499,0,0,0,0,0,0,0,-4.2231,-4.2249,-4.244,-4.2364,-4.236,-4.2329,-4.2337,-4.2451,-4.2436,-4.2362,-4.2353,-4.2364,-4.2434,-4.2467,-4.2477,-4.2658,-4.2486,-4.2495,-4.2501,-4.2505,-4.2998,-4.3005,0,0,0,0,0,0,-4.223,-4.2244,-4.2437,-4.2442,-4.2279,-4.234,-4.2348,-4.24,-4.2434,-4.2433,-4.237,-4.2358,-4.2454,-4.2466,-4.248,-4.2709,-4.2496,-4.2505,-4.2511,-4.2991,-4.3,-4.3008,0,0,0,0,0,0,-4.2224,-4.2248,-4.2434,-4.2341,-4.2362,-4.2351,-4.2411,-4.2405,-4.2438,-4.244,-4.2437,-4.2407,-4.2449,-4.2466,-4.2608,-4.271,-4.251,-4.2519,-4.2982,-4.2994,-4.3004,-4.3169,0,0,0,0,0,0,-4.2217,-4.2247,-4.232,-4.2343,-4.2368,-4.256,-4.2417,-4.2411,-4.2455,-4.244,-4.2474,-4.2473,-4.2445,-4.2594,-4.2618,-4.272,-4.2526,-4.2973,-4.2987,-4.3,-4.3154,-4.3184,-4.3209,0,0,0,0,0,-4.2208,-4.2364,-4.2324,-4.2348,-4.2458,-4.2566,-4.258,-4.2544,-4.2464,-4.2537,-4.2538,-4.2472,-4.2695,-4.2609,-4.2635,-4.2742,-4.2967,-4.2983,-4.2999,-4.3142,-4.3178,-4.3209,0,0,0,0,0,0,-4.2353,-4.2366,-4.2322,-4.2489,-4.2528,-4.2544,-4.2636,-4.2583,-4.2646,-4.263,-4.2583,-4.2592,-4.2743,-4.2756,-4.2661,-4.2931,-4.2818,-4.284,-4.2917,-4.2952,-4.2979,-4.2973,-4.2534,0,0,0,0,0,-4.2405,-4.249,-4.2496,-4.2644,-4.2665,-4.2648,-4.2693,-4.2662,-4.27,-4.2716,-4.2727,-4.2767,-4.2846,-4.2899,-4.2972,-4.3155,-4.3161,-4.3241,-4.3269,-4.3291,-4.3312,-4.341,-4.3446,-4.3061,-4.3061,-4.3061,0,0,-4.2512,-4.2529,-4.2586,-4.2673,-4.2699,-4.279,-4.2662,-4.2763,-4.283,-4.2731,-4.2865,-4.2875,-4.2917,-4.308,-4.3152,-4.3096,-4.3419,-4.3312,-4.333,-4.3338,-4.343,-4.3467,-4.3499,-4.3072,-4.307,-4.3069,0,0,-4.2754,-4.2775,-4.29,-4.2928,-4.2968,-4.2956,-4.2986,-4.3011,-4.3013,-4.3147,-4.3074,-4.3154,-4.3291,-4.3324,-4.3359,-4.3613,-4.3555,-4.3638,-4.3783,-4.3879,-4.391,-4.3936,-4.4028,-4.4061,-4.3658,-4.3658,-4.3658,0,-4.2882,-4.3015,-4.2971,-4.3078,-4.3118,-4.3031,-4.3158,-4.3188,-4.3251,-4.3282,-4.3217,-4.3387,-4.3409,-4.3579,-4.3641,-4.3672,-4.3705,-4.3634,-4.3908,-4.3935,-4.3959,-4.4046,-4.408,-4.3668,-4.3667,-4.3666,-4.3665,0,-4.3171,-4.3265,-4.3361,-4.3422,-4.3474,-4.359,-4.3565,-4.3623,-4.3587,-4.3581,-4.3719,-4.3742,-4.3818,-4.3856,-4.3823,-4.4022,-4.3985,-4.3916,-4.3801,-4.4006,-4.4087,-4.412,-4.3682,-4.3679,-4.3676,-4.3673,0,0,-4.3508,-4.3543,-4.3579,-4.3606,-4.3644,-4.3716,-4.3828,-4.3902,-4.3952,-4.3999,-4.4092,-4.421,-4.4146,-4.4185,-4.4155,-4.4239,-4.444,-4.4159,-4.4159,-4.4211,-4.4662,-4.4715,-4.4754,-4.4401,-4.4407,-4.4412,-4.4659,0,-4.3749,-4.3942,-4.3906,-4.4095,-4.4181,-4.41,-4.4198,-4.4232,-4.423,-4.4304,-4.4301,-4.4386,-4.4294,-4.4317,-4.4397,-4.4399,-4.453,-4.438,-4.4489,-4.4494,-4.4482,-4.4796,-4.4852,-4.5084,-4.469,-4.4695,-4.4699,0,-4.4057,-4.4113,-4.4311,-4.4335,-4.4369,-4.4458,-4.4523,-4.4593,-4.4631,-4.4624,-4.4668,-4.4622,-4.4735,-4.4617,-4.4773,-4.4672,-4.4715,-4.4722,-4.473,-4.474,-4.461,-4.4815,-4.5157,-4.5192,-4.4748,-4.4744,-4.4741,0,-4.4284,-4.4409,-4.4543,-4.4569,-4.46,-4.4665,-4.4681,-4.4712,-4.4758,-4.4815,-4.4845,-4.4914,-4.4953,-4.5008,-4.4982,-4.4899,-4.5144,-4.5024,-4.5142,-4.5143,-4.5198,-4.5195,-4.5552,-4.5224,-4.5223,-4.5223,-4.5222,0,-4.4558,-4.4682,-4.4645,-4.4728,-4.4865,-4.4823,-4.496,-4.4966,-4.4994,-4.5078,-4.5012,-4.5092,-4.5052,-4.5129,-4.511,-4.5242,-4.526,-4.5258,-4.5252,-4.5265,-4.5265,-4.5293,-4.5276,-4.5232,-4.523,-4.5228,-4.5226,0,-4.4835,-4.4815,-4.4956,-4.4974,-4.4981,-4.5081,-4.5097,-4.5175,-4.5167,-4.5274,-4.5296,-4.5285,-4.5373,-4.5352,-4.5448,-4.5435,-4.5602,-4.5575,-4.5589,-4.5583,-4.5702,-4.5692,-4.609,-4.6141,-4.5779,-4.5783,-4.5786,0,-4.5011,-4.5105,-4.5132,-4.5182,-4.5204,-4.5286,-4.5332,-4.5294,-4.5346,-4.5396,-4.5468,-4.555,-4.5613,-4.5757,-4.5758,-4.5832,-4.5806,-4.5941,-4.5817,-4.5828,-4.581,-4.5805,-4.5814,-4.5966,-4.597,-4.5974,-4.5976,0,-4.5327,-4.5313,-4.5382,-4.5449,-4.5506,-4.5557,-4.5601,-4.5647,-4.5612,-4.5674,-4.5762,-4.5811,-4.5908,-4.5991,-4.6058,-4.6076,-4.6022,-4.6015,-4.6046,-4.6061,-4.6066,-4.6066,-4.5657,-4.6007,-4.6004,-4.6001,-4.6,-4.5999,-4.556,-4.5639,-4.5671,-4.575,-4.5779,-4.5823,-4.5897,-4.5898,-4.597,-4.6046,-4.6019,-4.6121,-4.6156,-4.6241,-4.6267,-4.6346,-4.6296,-4.6341,-4.6353,-4.6365,-4.638,-4.6053,-4.6358,-4.6358,-4.6357,-4.6356,-4.6355,0,-4.5873,-4.5889,-4.5962,-4.6026,-4.6089,-4.6031,-4.6077,-4.6134,-4.6224,-4.6261,-4.6324,-4.6426,-4.6505,-4.6513,-4.6587,-4.665,-4.6627,-4.6671,-4.6666,-4.6672,-4.642,-4.6386,-4.6688,-4.6688,-4.6688,-4.6688,-4.6688,-4.6688,-4.6043,-4.6174,-4.6164,-4.6309,-4.6324,-4.6422,-4.6454,-4.6494,-4.6523,-4.6639,-4.6704,-4.6708,-4.6734,-4.681,-4.688,-4.688,-4.6912,-4.6966,-4.6957,-4.6722,-4.6689,-4.6658,-4.6625,-4.6973,-4.6973,-4.7201,-4.7204,-4.7205]},{"header":{"parameterUnit":"m.s-1","parameterCategory":1,"la1":30.2991,"la2":30.254,"lo1":-89.0895,"lo2":-89.0444,"dy":0.0017,"dx":0.0017,"nx":28,"ny":28,"refTime":"2024-12-23T03:00:00:Z","depth":0,"parameterNumber":3,"parameterNumberName":"V-component_of_WINDS"},"data":[0,0,0,0,0,0,0,0,0,0,0,0,0,0,0,0,0,0,0,0,0,0,0,0,0,0,0,0,0,0,0,0,0,0,0,0,0,0,0,0,0,0,0,0,0,0,0,0,0,0,0,0,0,0,0,0,0,0,-1.8388,-1.8388,0,-1.8386,-1.8386,-1.8386,-1.8354,-1.8353,-1.8352,-1.8352,-1.835,-1.835,-1.8351,0,0,0,0,0,0,0,0,0,0,0,0,0,-1.8361,-1.8362,-1.8388,-1.8388,-1.8388,-1.8386,-1.8386,-1.8386,-1.8354,-1.8353,-1.8352,-1.8351,-1.8349,-1.835,-1.8351,0,0,0,0,0,0,0,0,0,0,0,0,0,-1.8368,-1.8362,-1.8388,-1.8372,-1.837,-1.8386,-1.8386,-1.8386,-1.8354,-1.8353,-1.8352,-1.8351,-1.8349,-1.835,-1.8351,-1.8383,0,0,-1.8355,-1.8355,0,0,0,0,0,0,0,0,-1.8367,-1.8369,-1.8374,-1.8373,-1.8371,-1.8369,-1.8376,-1.8385,-1.8355,-1.836,-1.8352,-1.835,-1.8357,-1.8357,-1.836,-1.8383,-1.8383,-1.8355,-1.8355,-1.8356,-1.8356,0,0,0,0,0,0,0,-1.8367,-1.8369,-1.8387,-1.8374,-1.8372,-1.8364,-1.8363,-1.8378,-1.8366,-1.836,-1.8357,-1.8358,-1.8356,-1.8359,-1.836,-1.8383,-1.8355,-1.8356,-1.8356,-1.8357,-1.843,-1.8431,0,0,0,0,0,0,-1.8369,-1.8368,-1.8387,-1.8387,-1.8366,-1.8365,-1.8365,-1.8371,-1.8365,-1.8363,-1.8359,-1.8356,-1.8358,-1.8358,-1.8359,-1.8395,-1.8356,-1.8357,-1.8357,-1.8428,-1.843,-1.8431,0,0,0,0,0,0,-1.8368,-1.8371,-1.8387,-1.8377,-1.8379,-1.8367,-1.8374,-1.8372,-1.8374,-1.8365,-1.8362,-1.8364,-1.8357,-1.8358,-1.8377,-1.8394,-1.8357,-1.8358,-1.8427,-1.8429,-1.8431,-1.8467,0,0,0,0,0,0,-1.8368,-1.8371,-1.8383,-1.8378,-1.8379,-1.8405,-1.8375,-1.8372,-1.8376,-1.8373,-1.8369,-1.8367,-1.8356,-1.8375,-1.8378,-1.8395,-1.8359,-1.8425,-1.8428,-1.843,-1.8464,-1.847,-1.8475,0,0,0,0,0,-1.8367,-1.8394,-1.8384,-1.8387,-1.8394,-1.8406,-1.8407,-1.8394,-1.8378,-1.839,-1.8383,-1.8367,-1.8392,-1.8378,-1.838,-1.8398,-1.8424,-1.8427,-1.843,-1.8462,-1.8469,-1.8475,0,0,0,0,0,0,-1.8402,-1.8393,-1.8382,-1.8408,-1.8408,-1.8401,-1.8416,-1.8402,-1.8407,-1.8403,-1.8387,-1.8386,-1.8407,-1.8405,-1.8389,-1.8428,-1.8405,-1.8409,-1.8429,-1.8435,-1.844,-1.844,-1.836,0,0,0,0,0,-1.8413,-1.8424,-1.8415,-1.8438,-1.8439,-1.8427,-1.8432,-1.8422,-1.8421,-1.8421,-1.8416,-1.8416,-1.8424,-1.8429,-1.8436,-1.8464,-1.8462,-1.8477,-1.8482,-1.8487,-1.849,-1.8503,-1.8509,-1.8441,-1.8441,-1.8441,0,0,-1.8435,-1.8431,-1.8439,-1.8445,-1.8444,-1.8455,-1.8428,-1.8441,-1.8449,-1.8423,-1.8441,-1.8437,-1.8436,-1.8459,-1.8469,-1.8457,-1.8508,-1.849,-1.8494,-1.8495,-1.8507,-1.8513,-1.8519,-1.8443,-1.8442,-1.8442,0,0,-1.8481,-1.848,-1.8499,-1.8498,-1.8497,-1.8488,-1.8493,-1.8488,-1.8484,-1.8501,-1.8482,-1.8491,-1.8505,-1.8504,-1.8506,-1.855,-1.8535,-1.8553,-1.8581,-1.8594,-1.8599,-1.8604,-1.8619,-1.8624,-1.8556,-1.8556,-1.8556,0,-1.8509,-1.8525,-1.851,-1.8524,-1.8527,-1.8504,-1.8522,-1.8522,-1.8523,-1.8526,-1.8513,-1.8529,-1.8527,-1.8549,-1.8559,-1.8562,-1.8566,-1.8553,-1.86,-1.8604,-1.8608,-1.8622,-1.8628,-1.8558,-1.8558,-1.8558,-1.8558,0,-1.8558,-1.857,-1.8585,-1.8586,-1.859,-1.8607,-1.8594,-1.86,-1.8589,-1.8582,-1.8599,-1.8595,-1.86,-1.8605,-1.8594,-1.8625,-1.8618,-1.8603,-1.858,-1.8617,-1.863,-1.8635,-1.8561,-1.8561,-1.856,-1.856,0,0,-1.8627,-1.8619,-1.8625,-1.8624,-1.862,-1.8629,-1.8643,-1.8648,-1.8653,-1.8654,-1.8666,-1.8677,-1.8663,-1.8665,-1.8654,-1.8665,-1.8699,-1.8649,-1.8648,-1.8657,-1.8732,-1.8743,-1.8749,-1.869,-1.869,-1.8691,-1.8732,0,-1.8671,-1.8695,-1.8682,-1.8708,-1.8717,-1.8695,-1.8708,-1.8707,-1.87,-1.8707,-1.87,-1.8708,-1.8689,-1.869,-1.87,-1.8693,-1.8714,-1.869,-1.8699,-1.87,-1.87,-1.8756,-1.8768,-1.8806,-1.8737,-1.8737,-1.8738,0,-1.8725,-1.8728,-1.8755,-1.8748,-1.8752,-1.8763,-1.8766,-1.8773,-1.877,-1.8765,-1.8766,-1.8752,-1.8766,-1.8743,-1.8761,-1.8745,-1.8748,-1.8745,-1.8746,-1.8746,-1.8721,-1.8757,-1.8818,-1.8824,-1.8746,-1.8745,-1.8745,0,-1.8771,-1.8782,-1.8799,-1.8799,-1.8792,-1.8801,-1.8798,-1.8794,-1.8798,-1.88,-1.8801,-1.8805,-1.8807,-1.881,-1.8797,-1.8782,-1.8816,-1.8793,-1.8811,-1.8812,-1.8819,-1.8819,-1.8881,-1.8822,-1.8822,-1.8822,-1.8822,0,-1.8821,-1.8838,-1.8819,-1.883,-1.8848,-1.8832,-1.885,-1.8845,-1.8842,-1.8851,-1.8832,-1.8841,-1.8824,-1.883,-1.8821,-1.8836,-1.8837,-1.8833,-1.883,-1.8834,-1.8834,-1.8835,-1.8832,-1.8824,-1.8823,-1.8823,-1.8823,0,-1.8875,-1.8863,-1.8881,-1.8872,-1.887,-1.8884,-1.8876,-1.8885,-1.8877,-1.8889,-1.889,-1.8878,-1.8885,-1.8872,-1.8877,-1.8871,-1.8892,-1.8885,-1.8893,-1.889,-1.8909,-1.8907,-1.8974,-1.8981,-1.8918,-1.8919,-1.892,0,-1.8907,-1.892,-1.8912,-1.8917,-1.8915,-1.8923,-1.8925,-1.891,-1.8913,-1.8911,-1.892,-1.8925,-1.8929,-1.894,-1.8932,-1.8935,-1.8928,-1.8951,-1.8929,-1.8932,-1.8927,-1.8927,-1.8927,-1.8956,-1.8957,-1.8957,-1.8958,0,-1.8966,-1.8959,-1.8964,-1.8966,-1.897,-1.8971,-1.8971,-1.8976,-1.8959,-1.8964,-1.8971,-1.8973,-1.8978,-1.8983,-1.8985,-1.8982,-1.8967,-1.8965,-1.8969,-1.8973,-1.8977,-1.8974,-1.8905,-1.8963,-1.8963,-1.8962,-1.8962,-1.8962,-1.9009,-1.9019,-1.9015,-1.902,-1.9018,-1.9019,-1.9026,-1.9019,-1.9024,-1.9027,-1.9017,-1.9025,-1.9022,-1.9022,-1.902,-1.9027,-1.9016,-1.9023,-1.9024,-1.9026,-1.9029,-1.8976,-1.9027,-1.9027,-1.9027,-1.9026,-1.9026,0,-1.9066,-1.9061,-1.9067,-1.9067,-1.9071,-1.9057,-1.9055,-1.906,-1.9067,-1.9065,-1.9069,-1.9075,-1.908,-1.9071,-1.9074,-1.9081,-1.9074,-1.9082,-1.9081,-1.9081,-1.9038,-1.9034,-1.9088,-1.9088,-1.9088,-1.9088,-1.9088,-1.9088,-1.9095,-1.911,-1.9103,-1.9117,-1.9112,-1.912,-1.9121,-1.912,-1.9118,-1.9127,-1.913,-1.9124,-1.9119,-1.9122,-1.9125,-1.9122,-1.9124,-1.9134,-1.9129,-1.909,-1.9084,-1.9078,-1.9074,-1.9135,-1.9135,-1.9171,-1.9171,-1.9172]}]]